This demonstration page uses our WeatherBlox Daily Observations layout. Learn more.

Left ArrowRight Arrow

40.92945, -100.16068

Hourly Observations for March 15, 2021

Temp ( °F °C ) Dew Point ( °F °C ) Humidity (%) Winds ( mph kmh ) Pressure ( in mb ) Visibility ( mi km ) Precip ( " mm )
12:15 am 00:15 Cloudy with Mist and Fog 39 3.7 38 3.3 97 97 ENE 13 20 29.88 1012 3 4 N/A
12:35 am 00:35 Cloudy with Light Rain 38 3.6 38 3.2 97 97 ENE 13 20 29.88 1012 2 3 N/A
12:55 am 00:55 Cloudy with Mist and Fog 38 3.6 38 3.2 97 97 ENE 12 19 29.88 1012 3 5 N/A
1:15 am 01:15 Cloudy with Mist and Fog 38 3.6 38 3.2 97 97 ENE 12 19 29.87 1012 3 5 N/A
1:35 am 01:35 Cloudy with Mist and Fog 38 3.6 38 3.2 97 97 NE 12 19 29.85 1011 4 6 N/A
1:55 am 01:55 Cloudy 38 3.6 38 3.1 97 97 NE 12 19 29.83 1010 10 16 N/A
2:15 am 02:15 Cloudy 38 3.6 38 3.1 97 97 ENE 10 17 29.84 1011 10 16 N/A
2:35 am 02:35 Cloudy 38 3.6 38 3.1 97 97 ENE 14 22 29.84 1011 10 16 N/A
2:55 am 02:55 Cloudy 38 3.6 38 3.2 97 97 ENE 12 19 29.84 1011 10 16 N/A
3:15 am 03:15 Cloudy with Mist and Fog 38 3.6 38 3.2 97 97 ENE 13 20 29.84 1011 5 8 N/A
3:35 am 03:35 Cloudy with Mist and Fog 38 3.6 38 3.3 98 98 ENE 10 17 29.84 1011 2 3 N/A
3:55 am 03:55 Cloudy with Mist and Fog 38 3.6 38 3.4 99 99 ENE 9 15 29.84 1011 2 3 N/A
4:15 am 04:15 Cloudy with Mist and Fog 38 3.6 38 3.3 98 98 ENE 10 17 29.84 1011 3 4 N/A
4:35 am 04:35 Cloudy with Mist and Fog 38 3.6 38 3.3 98 98 NE 9 15 29.83 1010 4 6 N/A
4:55 am 04:55 Cloudy with Mist and Fog 38 3.6 38 3.3 98 98 NE 9 15 29.83 1010 4 6 N/A
5:15 am 05:15 Cloudy with Mist and Fog 38 3.6 38 3.4 99 99 NE 9 15 29.83 1010 2 2 N/A
5:35 am 05:35 Cloudy with Mist and Fog 38 3.6 38 3.5 99 99 NE 10 17 29.83 1010 1 1 N/A
5:55 am 05:55 Cloudy with Fog 38 3.6 38 3.5 99 99 ENE 7 11 29.84 1011 1 1 N/A
6:15 am 06:15 Cloudy with Light Rain 39 3.7 38 3.5 99 99 NNE 6 9 29.84 1011 1 1 N/A
6:35 am 06:35 Cloudy with Drizzle 39 3.7 38 3.5 99 99 N 9 15 29.84 1011 1 1 N/A
6:55 am 06:55 Cloudy with Light Rain 38 3.6 38 3.5 99 99 N 9 15 29.83 1010 1 1 N/A
7:15 am 07:15 Cloudy with Mist and Fog 38 3.3 38 3.1 99 99 N 13 20 29.83 1010 2 3 N/A
7:35 am 07:35 Cloudy with Mist and Fog 36 2.3 36 2.1 99 99 N 14 22 29.85 1011 4 6 N/A
7:55 am 07:55 Cloudy with Mist and Fog 36 2 35 1.8 99 99 N 12 19 29.86 1011 5 8 N/A
8:10 am 08:10 Cloudy 36 2.2 36 2 99 99 NNE 10 17 29.85 1011 10 16 N/A
8:35 am 08:35 Cloudy 36 2.2 36 2 99 99 N 9 15 29.85 1011 10 16 N/A
8:55 am 08:55 Cloudy 36 2.3 36 2 98 98 N 9 15 29.86 1011 10 16 N/A
9:55 am 09:55 Cloudy with Rain 36 2.3 36 2.1 99 99 N 12 19 29.87 1012 3 4 0.03 0.76
10:15 am 10:15 Cloudy with Light Rain 35 1.8 35 1.5 98 98 N 9 15 29.89 1012 3 5 0.02 0.51
10:35 am 10:35 Cloudy with Light Rain 35 1.7 34 1.3 97 97 N 10 17 29.89 1012 3 4 0.05 1.27
10:55 am 10:55 Cloudy with Light Rain 36 2 35 1.6 97 97 NNE 9 15 29.89 1012 7 11 0.06 1.52
11:15 am 11:15 Cloudy with Light Rain 37 2.6 36 2 96 96 N 10 17 29.88 1012 10 16 N/A
11:35 am 11:35 Cloudy with Drizzle 37 3 36 2.2 95 95 NNE 9 15 29.89 1012 10 16 N/A
11:55 am 11:55 Cloudy 38 3.1 36 2.4 95 95 NNE 8 13 29.89 1012 10 16 N/A
12:15 pm 12:15 Cloudy with Drizzle 38 3.3 36 2.4 94 94 NNE 8 13 29.88 1012 10 16 N/A
12:35 pm 12:35 Cloudy 38 3.5 37 2.5 93 93 NNE 8 13 29.88 1012 10 16 N/A
12:55 pm 12:55 Cloudy with Drizzle 38 3.5 36 2.3 92 92 N 7 11 29.88 1012 10 16 N/A
1:15 pm 13:15 Cloudy with Drizzle 39 3.9 37 2.5 91 91 N 7 11 29.87 1011 10 16 N/A
1:35 pm 13:35 Cloudy 39 4.1 36 2.4 89 89 NE 8 13 29.86 1011 10 16 N/A
1:55 pm 13:55 Cloudy 40 4.3 37 2.6 89 89 NE 8 13 29.85 1011 10 16 N/A
2:15 pm 14:15 Cloudy 41 4.9 38 3.2 89 89 NE 9 15 29.84 1010 10 16 N/A
2:35 pm 14:35 Cloudy 41 4.9 37 2.8 86 86 NE 6 9 29.83 1010 10 16 N/A
2:55 pm 14:55 Cloudy 42 5.5 38 3.4 87 87 E 5 7 29.82 1010 10 16 N/A
3:15 pm 15:15 Cloudy 42 5.4 37 2.7 83 83 N N/A 29.83 1010 10 16 N/A
3:35 pm 15:35 Cloudy 43 6 38 3.1 82 82 N N/A 29.81 1009 10 16 N/A
3:55 pm 15:55 Cloudy 43 6.1 38 3.5 84 84 ENE 5 7 29.80 1009 10 16 N/A
4:15 pm 16:15 Cloudy 43 6 37 3 81 81 N N/A 29.80 1009 10 16 N/A
4:35 pm 16:35 Cloudy 43 6.1 39 4 87 87 W 7 11 29.80 1009 10 16 N/A
4:55 pm 16:55 Cloudy 43 6.1 39 3.8 85 85 W 5 7 29.81 1009 10 16 N/A
5:15 pm 17:15 Cloudy 43 6 39 3.8 86 86 WSW 9 15 29.82 1010 10 16 N/A
5:35 pm 17:35 Cloudy 43 6 38 3.6 85 85 W 8 13 29.81 1009 10 16 N/A
5:55 pm 17:55 Cloudy 43 6.1 38 3.4 83 83 WSW 6 9 29.82 1010 10 16 N/A
6:15 pm 18:15 Cloudy 43 6.2 37 2.8 79 79 SE 3 6 29.82 1010 10 16 N/A
6:35 pm 18:35 Cloudy 44 6.5 37 2.9 78 78 N N/A 29.81 1010 10 16 N/A
6:55 pm 18:55 Cloudy 44 6.5 37 3 79 79 SE 5 7 29.81 1010 10 16 N/A
7:15 pm 19:15 Cloudy 44 6.5 37 2.8 77 77 SE 3 6 29.81 1010 10 16 N/A
7:35 pm 19:35 Cloudy 44 6.5 38 3.3 80 80 SSE 5 7 29.82 1010 10 16 N/A
7:55 pm 19:55 Cloudy 43 6.1 39 3.7 85 85 SSE 6 9 29.84 1010 10 16 N/A
8:15 pm 20:15 Cloudy 43 6 39 4 87 87 SE 6 9 29.85 1011 10 16 N/A
8:35 pm 20:35 Cloudy 42 5.7 39 4 89 89 SSE 8 13 29.85 1011 10 16 N/A
8:55 pm 20:55 Cloudy 42 5.6 39 4 90 90 SSE 6 9 29.85 1011 10 16 N/A
9:15 pm 21:15 Cloudy 42 5.5 39 4 90 90 SE 3 6 29.85 1011 10 16 N/A
9:35 pm 21:35 Mostly Cloudy 41 5 38 3.4 90 90 N N/A 29.86 1011 10 16 N/A
9:55 pm 21:55 Mostly Cloudy 40 4.6 38 3.5 93 93 N N/A 29.87 1012 10 16 N/A
10:15 pm 22:15 Cloudy 41 4.8 39 3.7 93 93 N N/A 29.86 1011 10 16 N/A
10:35 pm 22:35 Partly Cloudy 39 4.1 38 3.2 94 94 E 3 6 29.86 1011 10 16 N/A
10:55 pm 22:55 Partly Cloudy 39 3.8 37 3 95 95 ESE 3 6 29.87 1011 10 16 N/A
11:15 pm 23:15 Mostly Cloudy 39 3.7 38 3.1 96 96 N N/A 29.88 1012 10 16 N/A
11:35 pm 23:35 Cloudy 39 4 38 3.3 95 95 SSE 3 6 29.88 1012 10 16 N/A
11:55 pm 23:55 Cloudy 39 4.1 38 3.5 96 96 SSE 5 7 29.88 1012 10 16 N/A

Powered by AerisWeather